| time (UTC) | temp F | wind direction | speed knots | gust knots | rain 1hr in | rain 24hr in | rain mn in | humidity % | barometer mb |
| 20260504214504 | 72 | 224 | 4.3 | 0.0 | 0.00 | 0.00 | 0.00 | 41 | 1008.7 |
| 20260504213013 | 73 | 182 | 6.1 | 0.0 | 0.00 | 0.00 | 0.00 | 38 | 1008.7 |
| 20260504211508 | 74 | 200 | 4.3 | 0.0 | 0.00 | 0.00 | 0.00 | 36 | 1008.7 |
| 20260504210003 | 73 | 258 | 5.2 | 0.0 | 0.00 | 0.00 | 0.00 | 38 | 1008.7 |
| 20260504204604 | 73 | 245 | 5.2 | 0.0 | 0.00 | 0.00 | 0.00 | 38 | 1008.7 |
| 20260504203122 | 73 | 182 | 3.5 | 0.0 | 0.00 | 0.00 | 0.00 | 37 | 1008.7 |
| 20260504201559 | 72 | 334 | 6.1 | 0.0 | 0.00 | 0.00 | 0.00 | 41 | 1009.2 |
| 20260504200058 | 73 | 215 | 4.3 | 0.0 | 0.00 | 0.00 | 0.00 | 43 | 1009.3 |
| 20260504194605 | 73 | 180 | 3.5 | 0.0 | 0.00 | 0.00 | 0.00 | 39 | 1009.4 |
| 20260504193103 | 72 | 201 | 4.3 | 0.0 | 0.00 | 0.00 | 0.00 | 41 | 1009.9 |
| 20260504191552 | 72 | 191 | 5.2 | 0.0 | 0.00 | 0.00 | 0.00 | 38 | 1010.3 |
| 20260504190109 | 72 | 293 | 4.3 | 0.0 | 0.00 | 0.00 | 0.00 | 36 | 1010.4 |
| 20260504184559 | 71 | 218 | 5.2 | 0.0 | 0.00 | 0.00 | 0.00 | 36 | 1010.7 |
| 20260504183046 | 71 | 241 | 4.3 | 0.0 | 0.00 | 0.00 | 0.00 | 38 | 1010.9 |
| 20260504181545 | 70 | 214 | 5.2 | 0.0 | 0.00 | 0.00 | 0.00 | 38 | 1011.0 |
| 20260504180047 | 70 | 180 | 5.2 | 0.0 | 0.00 | 0.00 | 0.00 | 40 | 1011.1 |
| 20260504174543 | 70 | 329 | 4.3 | 0.0 | 0.00 | 0.00 | 0.00 | 36 | 1011.3 |
| 20260504173048 | 70 | 221 | 4.3 | 0.0 | 0.00 | 0.00 | 0.00 | 38 | 1011.4 |
| 20260504171540 | 69 | 308 | 3.5 | 0.0 | 0.00 | 0.00 | 0.00 | 37 | 1011.5 |
| 20260504140107 | 60 | 227 | 3.5 | 0.0 | 0.00 | 0.00 | 0.00 | 47 | 1013.3 |
| 20260504100105 | 43 | 305 | 0.0 | 0.0 | 0.00 | 0.00 | 0.00 | 82 | 1013.9 |
| 20260504090118 | 43 | 305 | 0.0 | 0.0 | 0.00 | 0.00 | 0.00 | 79 | 1014.3 |
| 20260504081554 | 42 | 305 | 0.0 | 0.0 | 0.00 | 0.00 | 0.00 | 75 | 1014.5 |
| 20260504044546 | 41 | 305 | 0.0 | 0.0 | 0.00 | 0.00 | 0.00 | 77 | 1015.1 |
| 20260504043035 | 40 | 305 | 0.0 | 0.0 | 0.00 | 0.00 | 0.00 | 78 | 1015.1 |
| 20260504041531 | 40 | 305 | 0.9 | 0.0 | 0.00 | 0.00 | 0.00 | 77 | 1015.1 |
| 20260504040031 | 41 | 305 | 0.0 | 0.0 | 0.00 | 0.00 | 0.00 | 75 | 1015.0 |
| 20260504034538 | 41 | 305 | 0.9 | 0.0 | 0.00 | 0.00 | 0.00 | 76 | 1015.0 |
| 20260504033037 | 41 | 305 | 0.0 | 0.0 | 0.00 | 0.00 | 0.00 | 75 | 1014.6 |
| 20260504031528 | 41 | 306 | 0.0 | 0.0 | 0.00 | 0.00 | 0.00 | 73 | 1014.7 |
| 20260504030027 | 43 | 305 | 0.0 | 0.0 | 0.00 | 0.00 | 0.00 | 70 | 1014.6 |
| 20260504024559 | 42 | 305 | 0.0 | 0.0 | 0.00 | 0.00 | 0.00 | 72 | 1014.6 |
| 20260504023053 | 43 | 305 | 0.0 | 0.0 | 0.00 | 0.00 | 0.00 | 69 | 1014.6 |
| 20260504021553 | 44 | 305 | 0.0 | 0.0 | 0.00 | 0.00 | 0.00 | 65 | 1014.5 |
| 20260504020051 | 44 | 306 | 0.0 | 0.0 | 0.00 | 0.00 | 0.00 | 67 | 1014.6 |
| 20260504014552 | 46 | 305 | 0.0 | 0.0 | 0.00 | 0.00 | 0.00 | 62 | 1014.5 |
| 20260504013051 | 47 | 305 | 0.0 | 0.0 | 0.00 | 0.00 | 0.00 | 60 | 1014.5 |
| 20260504011551 | 48 | 305 | 0.0 | 0.0 | 0.00 | 0.00 | 0.00 | 59 | 1014.1 |
| 20260504010056 | 51 | 305 | 0.0 | 0.0 | 0.00 | 0.00 | 0.00 | 50 | 1014.1 |
| 20260504004549 | 50 | 305 | 0.0 | 0.0 | 0.00 | 0.00 | 0.00 | 53 | 1014.1 |
| 20260504003051 | 52 | 305 | 0.0 | 0.0 | 0.00 | 0.00 | 0.00 | 46 | 1013.9 |
| 20260504001607 | 53 | 305 | 0.0 | 0.0 | 0.00 | 0.00 | 0.00 | 45 | 1013.6 |
| 20260504000049 | 54 | 305 | 0.0 | 0.0 | 0.00 | 0.00 | 0.00 | 43 | 1013.5 |
| 20260503234548 | 56 | 307 | 0.9 | 0.0 | 0.00 | 0.00 | 0.00 | 38 | 1013.5 |
| 20260503233046 | 57 | 301 | 2.6 | 0.0 | 0.00 | 0.00 | 0.00 | 37 | 1013.4 |
| 20260503231547 | 58 | 314 | 5.2 | 0.0 | 0.00 | 0.00 | 0.00 | 35 | 1013.2 |
| 20260503230046 | 58 | 0 | 4.3 | 0.0 | 0.00 | 0.00 | 0.00 | 36 | 1013.1 |
| 20260503224546 | 59 | 279 | 7.0 | 0.0 | 0.00 | 0.00 | 0.00 | 32 | 1013.2 |
| 20260503223046 | 60 | 294 | 7.0 | 0.0 | 0.00 | 0.00 | 0.00 | 32 | 1013.3 |
| 20260503221545 | 60 | 296 | 7.0 | 0.0 | 0.00 | 0.00 | 0.00 | 35 | 1013.2 |
| 20260503220103 | 60 | 309 | 7.0 | 0.0 | 0.00 | 0.00 | 0.00 | 34 | 1013.2 |